Location: Slidell
(30.2789°N, 89.7378°W)
Time: 04:31:07
(UTC-06:00)

Daily predictions for brighter satellites

Satellite Brightness Start Highest point End
(mag) Time Altitude Azimuth Time Altitude Azimuth Time Altitude Azimuth
H-2A ROCKET BODY 3.7 03:35:48 53° SSE 03:35:48 53° SSE 03:52:44 10° ESE
CZ-3 R/B 3.6 03:38:02 10° SW 04:02:45 45° S 04:09:17 10° E
DELTA 2 R/B (1) 4.0 04:15:25 57° ESE 04:15:25 57° ESE 04:19:49 10° ESE
USA 215 3.2 04:08:56 10° NE 04:15:29 82° SE 04:16:24 68° SSW
Cosmos 2181 Rocket 3.9 04:25:32 79° WSW 04:25:32 79° WSW 04:31:43 10° S
Cosmos 1603 3.6 04:28:47 45° SSW 04:30:39 84° ESE 04:36:21 10° NNE
Cosmos 44 Rocket 3.7 04:30:03 43° S 04:31:37 66° ESE 04:36:43 10° NNE
Lacrosse 5 2.2 04:34:49 55° NNE 04:34:49 55° NNE 04:38:49 10° NE
Cosmos 921 Rocket 4.0 04:34:13 37° NE 04:35:20 45° ENE 04:39:40 10° SSE
Meteor 1-17 Rocket 4.5 04:36:38 10° S 04:42:11 79° W 04:47:42 10° N
Timation 1 Rocket 4.3 04:45:02 59° WNW 04:45:43 64° WSW 04:51:38 10° S
USA 116 4.2 04:42:49 10° S 04:46:00 56° S 04:46:00 56° S
COSMO-SKYMED 1 4.4 04:44:32 10° SE 04:48:18 30° ENE 04:52:04 10° NNE
Meteor 1-18 Rocket 4.2 04:47:21 25° NNW 04:50:57 81° W 04:56:52 10° S
Meteor 1-20 Rocket 4.1 04:46:08 10° SSW 04:51:39 62° W 04:57:07 10° N
Feng Yun 1-1 Rocket 4.1 04:46:17 10° N 04:51:43 58° WNW 04:57:00 10° SSW
Cosmos 1943 3.8 04:49:20 10° S 04:54:47 56° ESE 05:00:18 10° NNE
Gbstr 26 Del rocket 3.1 04:58:12 55° SW 04:58:12 55° SW 05:02:07 10° SSE
Cosmos 2297 4.1 05:00:52 39° WSW 05:00:52 39° WSW 05:06:03 10° S
NOAA 6 3.9 05:00:18 10° N 05:05:25 75° WNW 05:10:32 10° SSW
Cosmos 1300 Rocket 3.4 05:02:37 10° S 05:07:02 82° W 05:11:28 10° N
CRYOSAT 2 4.4 05:02:33 10° S 05:07:24 81° E 05:12:19 10° N
Cosmos 1633 2.5 05:09:15 10° S 05:12:53 84° E 05:16:32 10° N
GPS 2-05 Rocket1 3.2 05:19:59 41° NNW 05:20:50 53° NNE 05:24:22 10° E
USA 229 DEB 4.0 05:14:53 10° SSW 05:21:42 72° ESE 05:28:36 10° NNE
USA 229 4.0 05:15:00 10° SSW 05:21:49 72° ESE 05:28:41 10° NNE
Thor Agena Rocket 4.3 05:20:34 10° SSW 05:24:51 28° W 05:25:51 26° WNW
Cosmos 1602 3.8 05:22:55 10° SSW 05:26:45 52° W 05:30:38 10° N
Cosmos 1812 4.1 05:29:35 22° WSW 05:29:35 22° WSW 05:31:48 10° SW
DASH 2.9 05:27:48 25° WSW 05:29:34 74° S 05:37:52 10° E
Cosmos 44 3.5 05:25:12 10° SW 05:30:31 61° WNW 05:35:45 10° NNE
Cosmos 2341 Rocket 4.0 05:25:40 10° S 05:31:58 90° W 05:38:16 10° N
Meteor 2-13 Rocket 4.4 05:28:14 10° SSW 05:34:19 66° W 05:40:27 10° N
Meteor 1-19 Rocket 4.4 05:28:55 10° N 05:34:46 82° E 05:40:29 10° S
SKYMED 2 3.5 05:31:57 10° S 05:36:15 67° W 05:40:34 10° NNW
Meteor 1-11 Rocket 3.8 05:30:52 10° SSW 05:36:40 60° W 05:42:22 10° N
Skynet4D Del rocket 4.1 05:32:01 12° WSW 05:36:45 52° S 05:42:00 10° E
Okean 1 4.2 05:35:52 23° WNW 05:37:13 29° W 05:40:42 10° SSW
Cosmos 2056 Rocket 3.4 05:34:18 10° NNW 05:39:23 66° WSW 05:44:25 10° S
ASTRO E2 2.9 05:36:36 16° WSW 05:39:44 69° SSE 05:43:45 10° E
Cosmos 2084 3.8 05:36:19 10° SSW 05:40:14 61° ESE 05:44:02 10° NE
Meteor 1-28 Rocket 3.4 05:38:45 10° SSE 05:42:30 71° ENE 05:46:18 10° N
Abrixas rocket 4.5 05:43:16 12° NNW 05:43:16 12° NNW 05:44:24 10° N
DMSP B5D1-3 4.5 05:43:26 10° S 05:48:33 69° WSW 05:53:41 10° NNW
Cosmos 1346 Rocket 3.9 05:47:10 16° NW 05:49:10 24° W 05:52:22 10° SSW
Ariane Rocket 3.2 05:47:50 10° N 05:52:40 46° WNW 05:57:28 10° SW
Cosmos 1624 Rocket 4.4 05:47:54 10° NNW 05:52:55 43° WSW 05:57:54 10° S
USA 215 4.2 05:52:50 10° NNE 05:57:56 25° NW 06:03:03 10° W
Cosmos 2154 Rocket 4.5 05:53:43 10° SW 05:59:23 37° W 06:05:04 10° NNW
Cosmos 1340 4.0 05:57:36 10° N 06:01:13 42° E 06:04:48 10° SSE
Meteor 1-23 Rocket 4.3 05:56:10 10° N 06:01:44 86° E 06:07:18 10° S
CSL-04 Rocket 3.9 05:58:15 10° N 06:03:33 49° WNW 06:08:48 10° SSW
PSLV R/B 3.9 06:02:42 11° NW 06:05:54 49° NNE 06:09:11 10° ESE
Okean 2 3.9 06:01:47 10° N 06:05:56 64° E 06:10:01 10° SSE
CZ-2C R/B 2.9 06:01:58 10° NNE 06:07:05 68° ESE 06:12:02 10° S
CSL-04 Debris 4.3 06:02:46 10° N 06:08:05 53° WNW 06:13:24 10° SSW
Cosmos 1025 Rocket 3.1 06:05:27 10° NNW 06:09:47 62° W 06:14:02 10° S
YAOGAN 1 3.0 06:07:49 10° NNE 06:12:08 68° E 06:16:26 10° S
Meteor 2-4 Rocket 3.8 06:06:52 10° NNW 06:12:21 63° W 06:18:00 10° S
IDEFIX/ARIANE 42P 2.9 06:08:27 10° NNE 06:13:40 76° ESE 06:18:51 10° S
Meteor 1-5 Rocket 4.2 06:10:51 10° SSW 06:16:08 55° W 06:21:21 10° N
Meteor 2-19 Rocket 4.4 06:10:26 10° S 06:16:32 75° W 06:22:39 10° N
Lacrosse 5 3.7 06:15:12 10° WNW 06:17:21 12° NW 06:19:30 10° N
Cosmos 1536 4.1 06:14:51 10° SW 06:17:49 20° WNW 06:20:47 10° NNW
Cosmos 2369 Rocket 2.3 06:13:54 10° NNW 06:19:33 66° WSW 06:25:09 10° S
SL-27 R/B 4.0 06:17:04 10° S 06:20:22 41° ESE 06:23:46 10° NNE
CZ-4 R/B 1.4 06:17:08 10° N 06:20:58 54° WNW 06:24:44 10° SSW
